Volver al catálogo

FENGYUN 1C DEB

ActivoPO
NORAD 30624·DEBRIS·🇨🇳 China

Lanzado May 10, 1999 desde Taiyuan Satellite Launch Center

Loading…

Próximos Pases (próximas 24 horas)

TLE

ActualizadoSource: Space-Track

Época: Sep 13, 2026, 06:31 UTC

1 30624U 99025ANF 26256.27154639  .00014562  00000-0  21647-2 0  9998
2 30624  98.8825   7.0941 0017354 145.5597 214.6738 14.74993628 15183

Sigue FENGYUN 1C DEB en tiempo real con AllMySat

Download on the App Store